TimeCDT,TemperatureF,Dew PointF,Humidity,Sea Level PressureIn,VisibilityMPH,Wind Direction,Wind SpeedMPH,Gust SpeedMPH,PrecipitationIn,Events,Conditions,WindDirDegrees,DateUTC
12:53 AM,71.1,48.9,45,29.74,10.0,North,5.8,-,N/A,,Clear,360,2012-09-25 05:53:00
1:53 AM,68.0,48.9,50,29.73,10.0,WNW,3.5,-,N/A,,Clear,290,2012-09-25 06:53:00
2:53 AM,66.9,46.0,47,29.71,10.0,WNW,10.4,-,N/A,,Clear,300,2012-09-25 07:53:00
3:53 AM,62.1,46.9,58,29.70,10.0,SW,4.6,-,N/A,,Clear,230,2012-09-25 08:53:00
4:53 AM,59.0,46.0,62,29.70,10.0,WSW,6.9,-,N/A,,Clear,240,2012-09-25 09:53:00
5:53 AM,55.9,48.0,75,29.73,10.0,SSW,8.1,-,N/A,,Clear,210,2012-09-25 10:53:00
6:53 AM,55.9,46.0,69,29.75,10.0,Calm,Calm,-,N/A,,Clear,0,2012-09-25 11:53:00
7:53 AM,55.9,46.0,69,29.77,10.0,SSW,3.5,-,N/A,,Clear,200,2012-09-25 12:53:00
8:53 AM,62.1,48.9,62,29.77,10.0,South,6.9,-,N/A,,Clear,190,2012-09-25 13:53:00
9:53 AM,70.0,44.1,39,29.74,10.0,NE,4.6,-,N/A,,Clear,50,2012-09-25 14:53:00
10:53 AM,75.0,45.0,34,29.74,10.0,Variable,5.8,-,N/A,,Clear,0,2012-09-25 15:53:00
11:53 AM,78.1,46.0,32,29.74,10.0,Calm,Calm,-,N/A,,Clear,0,2012-09-25 16:53:00
12:53 PM,81.0,46.0,29,29.72,10.0,Variable,4.6,-,N/A,,Clear,0,2012-09-25 17:53:00
2:53 PM,87.1,41.0,20,29.67,10.0,West,12.7,17.3,N/A,,Clear,260,2012-09-25 19:53:00
3:53 PM,88.0,39.9,18,29.67,10.0,West,8.1,20.7,N/A,,Clear,260,2012-09-25 20:53:00
4:53 PM,88.0,39.9,18,29.66,10.0,West,11.5,18.4,N/A,,Clear,270,2012-09-25 21:53:00
5:53 PM,88.0,39.9,18,29.66,10.0,West,4.6,-,N/A,,Clear,270,2012-09-25 22:53:00
6:53 PM,82.9,39.9,22,29.68,10.0,North,5.8,-,N/A,,Clear,360,2012-09-25 23:53:00
7:51 PM,77.0,48.2,36,29.83,10.0,NNE,11.5,20.7,0.01,,Overcast,30,2012-09-26 00:51:00
7:53 PM,75.0,50.0,41,29.73,10.0,NNE,6.9,-,0.01,,Mostly Cloudy,30,2012-09-26 00:53:00
8:53 PM,73.9,48.9,41,29.71,10.0,NE,3.5,-,N/A,,Clear,50,2012-09-26 01:53:00
9:53 PM,73.9,46.0,37,29.71,10.0,North,3.5,-,N/A,,Clear,350,2012-09-26 02:53:00
10:53 PM,69.1,45.0,42,29.75,10.0,North,9.2,-,N/A,,Clear,350,2012-09-26 03:53:00